Wind_Speed
59 60 60 61 62 63 64 65 67 68 68 70 71 71 72 72 73 74 75 76 78 80 80 81 82 84 85 87 88 89 89 88 88 89 89 89 89 88 88 87 87 87
58 60 61 62 63 64 66 67 69 70 71 72 73 73 73 74 74 75 76 78 80 83 85 86 87 89 90 92 93 92 91 90 89 88 89 88 88 87 86 85 85 85
59 61 63 64 66 67 69 70 72 73 74 75 75 76 76 76 77 78 79 81 83 86 88 91 92 94 96 96 96 95 93 90 89 88 87 85 84 83 82 81 81 81
61 62 64 66 68 70 72 73 75 76 77 78 78 78 79 80 80 81 83 84 86 88 91 94 97 99 100 99 97 95 92 89 87 86 84 82 80 78 76 76 76 76
63 65 67 69 71 73 74 76 77 78 79 80 80 81 82 83 84 85 86 88 89 91 93 97 100 101 101 98 95 91 88 86 83 82 80 77 75 73 72 71 71 71
65 67 68 70 72 74 76 77 79 80 80 81 82 83 85 86 87 88 90 91 92 93 96 99 101 100 97 94 90 86 83 81 79 77 75 73 71 69 68 67 67 67
66 68 70 72 73 76 77 79 80 81 83 83 85 86 87 89 90 91 92 93 94 96 99 100 99 94 90 87 85 82 78 76 74 73 71 69 68 67 66 65 64 64
68 70 72 74 76 78 79 81 82 83 84 85 87 88 89 91 92 93 94 96 97 99 100 98 93 87 82 80 79 77 74 71 70 69 67 66 65 64 64 63 62 62
70 72 74 76 78 79 81 82 83 84 85 87 88 89 91 93 94 96 97 99 100 100 98 93 86 79 76 74 73 73 70 67 66 65 64 63 63 62 61 61 60 60
73 74 76 78 79 81 82 84 85 86 87 88 90 91 93 95 96 98 100 101 100 98 93 86 78 73 71 70 69 69 67 64 63 62 61 61 60 60 59 59 58 58
75 77 78 80 81 82 84 85 86 88 89 90 92 93 95 96 98 99 100 100 98 93 87 80 73 69 67 66 66 67 64 61 60 60 59 59 58 58 57 57 57 57
77 79 80 82 83 85 86 87 88 90 91 92 94 96 97 98 99 100 99 97 93 87 81 76 70 66 65 63 63 64 62 58 58 58 57 57 56 55 55 55 55 56
79 80 82 84 85 87 89 90 91 92 93 94 96 98 99 100 100 99 97 92 86 80 76 73 69 65 62 60 60 62 60 56 56 56 55 55 54 53 53 53 54 55
80 81 84 86 88 90 91 93 94 94 95 96 98 99 100 100 99 97 93 87 81 76 73 72 68 63 60 58 58 59 58 55 54 54 53 53 52 52 52 52 52 53
81 84 86 88 90 92 94 96 97 97 98 99 100 100 101 100 98 94 89 83 78 74 72 70 66 62 59 57 56 56 56 54 52 51 51 51 50 50 50 50 50 49
83 86 88 91 93 95 97 98 99 100 101 101 101 101 100 99 95 90 85 80 77 74 71 68 64 60 57 55 54 54 54 53 51 49 49 49 48 48 48 48 47 46
87 89 91 94 96 98 99 101 102 102 103 103 102 102 100 97 92 87 81 78 76 72 69 66 62 57 55 53 53 53 53 53 50 47 47 47 46 45 45 45 45 44
90 92 94 97 99 100 102 103 104 105 105 104 104 102 100 95 89 83 78 75 73 69 66 63 59 55 53 51 51 51 51 51 50 46 44 45 44 43 43 43 42 42
94 96 97 99 101 103 105 106 106 106 106 106 105 102 98 92 85 80 75 71 69 65 62 59 55 53 51 49 49 50 49 49 49 45 42 42 42 42 42 41 40 40
97 98 100 102 104 105 107 107 108 107 107 106 104 100 94 87 80 75 71 67 64 60 58 54 50 49 49 48 47 48 47 47 47 43 40 40 41 41 40 39 39 38
99 101 102 104 106 107 108 108 108 107 106 104 100 94 88 81 76 71 66 62 59 56 53 49 46 46 47 47 46 45 45 45 44 41 39 38 38 39 38 38 38 38
102 103 105 107 108 109 109 109 108 106 103 99 94 87 81 76 71 65 61 58 55 52 49 44 42 43 44 45 44 42 42 42 42 39 37 36 36 37 37 37 38 38
104 106 108 109 110 110 110 108 106 102 98 93 87 80 74 70 65 60 56 54 50 48 44 40 39 40 42 42 41 40 40 40 39 38 36 34 34 36 37 37 38 38
106 108 110 110 110 110 108 105 101 96 90 85 80 74 69 64 59 54 51 49 46 44 40 37 36 37 38 38 38 38 38 38 37 36 33 32 34 36 36 38 39 39
108 109 110 110 109 107 103 99 94 88 82 76 72 68 63 58 54 49 46 44 42 39 36 35 34 34 35 36 35 35 36 35 35 33 31 32 34 36 36 38 40 39
108 109 109 107 105 101 96 91 86 80 74 69 65 62 58 53 49 45 41 39 37 35 33 33 31 31 33 33 33 33 33 33 32 31 31 33 35 35 35 38 39 37
Wind_Direction
293 294 294 294 295 295 295 295 295 295 295 295 294 293 292 292 291 291 292 293 293 293 292 292 292 292 292 292 291 290 288 286 283 281 279 277 276 274 273 271 270 269
294 295 295 296 296 296 296 296 297 296 296 296 295 294 293 293 292 292 293 294 295 296 296 295 295 295 294 294 292 291 288 286 283 280 278 276 275 274 272 271 269 268
295 296 297 297 298 298 298 299 299 299 298 298 297 296 296 295 295 295 295 296 297 298 298 298 297 297 296 295 293 291 288 285 282 279 276 275 274 273 272 270 269 267
296 298 298 299 300 300 301 301 301 301 300 300 299 299 298 298 298 298 298 298 299 299 299 299 299 298 296 294 291 289 286 283 280 278 276 275 273 272 271 270 269 267
298 299 300 301 302 302 303 303 303 302 302 301 301 300 300 300 300 300 300 300 300 300 300 300 299 297 295 292 289 286 283 280 278 277 276 275 274 272 271 269 268 267
299 300 301 302 303 303 304 304 303 303 302 302 302 301 301 301 301 301 301 301 300 300 300 300 298 296 292 289 286 283 281 279 277 276 275 274 274 272 271 269 268 267
299 301 302 302 303 304 304 304 304 304 303 303 303 302 302 302 302 302 302 302 302 302 302 300 297 293 289 285 283 281 279 277 276 275 274 273 272 271 270 269 267 266
300 301 302 303 303 304 304 305 305 304 304 303 303 303 303 303 304 303 303 304 304 304 303 300 296 291 286 282 280 279 277 276 275 274 272 271 270 269 269 268 266 265
302 302 303 303 304 305 305 305 305 304 304 304 304 304 305 305 305 305 306 306 306 305 302 298 294 289 284 280 279 278 277 275 273 272 271 270 269 268 267 267 265 264
303 303 303 304 304 305 306 306 305 305 305 305 305 306 306 307 307 307 307 307 306 305 301 297 292 287 282 279 278 277 276 274 273 271 270 269 268 267 266 265 264 264
302 303 303 304 305 306 306 306 306 306 306 306 307 307 308 308 308 309 308 307 306 303 299 295 290 285 281 278 277 276 275 274 272 271 269 268 267 266 265 264 264 263
302 303 304 306 306 307 307 307 307 307 308 308 308 309 309 309 309 309 308 307 304 301 297 293 289 284 280 278 276 276 275 273 271 270 269 267 266 264 263 263 263 263
304 305 306 307 308 308 308 308 308 309 309 309 309 310 310 310 310 309 308 305 302 298 295 292 288 283 280 277 275 275 274 272 270 269 267 266 264 263 262 262 263 263
306 307 308 309 309 309 310 310 310 310 310 310 310 310 311 311 310 309 306 303 299 296 294 291 287 283 280 276 274 274 273 271 269 267 266 264 263 261 261 261 263 263
307 309 309 310 310 310 310 310 311 310 311 311 311 311 311 311 310 307 304 300 297 294 292 290 286 282 279 276 273 273 272 270 268 266 264 263 260 259 259 260 262 262
309 309 310 310 311 311 311 311 311 311 311 311 311 311 311 310 308 306 302 298 295 293 291 289 285 280 278 276 273 272 270 268 267 265 263 261 259 258 258 259 260 260
310 310 311 311 311 311 311 311 311 311 311 311 311 311 311 309 307 303 299 296 293 291 289 288 283 278 276 274 272 270 269 267 265 263 261 260 257 257 258 257 258 260
310 311 311 311 311 311 311 311 311 312 312 312 311 311 310 308 305 301 297 294 291 288 287 285 280 276 275 273 270 268 266 265 264 261 259 257 256 256 256 255 256 260
311 311 312 311 311 312 312 312 312 312 312 312 311 310 309 307 304 300 296 293 290 286 285 282 277 273 273 271 267 265 264 263 262 260 256 254 255 256 254 253 255 259
311 312 312 312 312 312 312 312 312 312 312 312 311 310 308 305 302 299 295 292 289 285 283 279 273 270 271 269 265 263 262 261 261 258 254 252 254 254 251 251 255 256
312 312 312 312 312 312 312 312 312 312 312 311 310 308 306 303 301 297 293 291 287 284 282 276 269 267 268 265 263 262 260 259 258 257 253 251 252 250 248 251 254 252
312 312 313 313 313 313 313 313 313 312 311 310 308 307 304 302 299 295 291 289 285 283 279 272 266 265 265 263 261 259 258 257 256 255 253 251 248 245 247 251 251 246
313 313 313 313 313 313 313 313 313 312 310 309 307 305 303 300 297 293 289 286 283 281 276 268 263 264 262 260 259 257 255 255 255 254 253 249 244 243 248 251 246 240
313 313 313 314 314 314 314 313 312 311 309 308 306 304 302 299 295 291 287 283 281 278 272 264 262 261 259 257 256 255 254 254 254 254 251 246 242 245 249 246 239 235
314 314 314 314 314 314 314 313 312 311 309 307 305 303 301 298 294 290 284 280 278 274 267 263 261 258 255 254 253 252 254 255 255 253 249 245 246 249 247 238 232 232
315 315 315 315 315 314 314 313 312 310 309 307 305 302 300 298 293 288 283 278 274 268 263 261 259 254 252 251 250 251 254 254 253 252 250 250 251 247 237 229 227 229
Height
5498 5495 5492 5489 5486 5483 5480 5477 5474 5471 5468 5465 5461 5459 5455 5451 5447 5443 5439 5434 5430 5427 5425 5423 5420 5417 5414 5410 5406 5402 5400 5398 5395 5392 5388 5387 5387 5385 5385 5385 5384 5383
5489 5486 5482 5479 5476 5473 5470 5466 5463 5460 5457 5454 5450 5446 5443 5440 5436 5432 5428 5424 5419 5414 5410 5407 5404 5401 5397 5394 5390 5387 5384 5381 5379 5376 5372 5371 5370 5369 5369 5369 5368 5367
5480 5477 5473 5469 5465 5462 5459 5455 5451 5447 5443 5440 5437 5433 5429 5426 5423 5419 5415 5411 5407 5402 5396 5391 5387 5384 5380 5377 5372 5369 5367 5364 5362 5358 5355 5355 5354 5353 5354 5353 5352 5352
5472 5467 5463 5459 5455 5450 5446 5442 5438 5434 5429 5426 5423 5419 5415 5411 5408 5405 5401 5397 5392 5388 5382 5376 5371 5366 5362 5358 5354 5351 5349 5346 5344 5341 5338 5339 5339 5338 5339 5338 5337 5338
5462 5457 5453 5448 5444 5439 5435 5430 5426 5421 5417 5413 5410 5406 5401 5397 5394 5390 5386 5382 5378 5373 5368 5362 5356 5349 5343 5339 5335 5333 5331 5329 5328 5325 5323 5324 5324 5324 5324 5324 5324 5325
5453 5448 5443 5438 5434 5429 5424 5419 5414 5410 5405 5401 5397 5393 5388 5383 5379 5375 5371 5367 5363 5358 5353 5346 5339 5332 5325 5320 5317 5316 5315 5313 5312 5311 5309 5310 5310 5310 5311 5311 5312 5312
5444 5439 5434 5429 5424 5419 5414 5409 5404 5398 5393 5388 5384 5379 5374 5369 5365 5360 5355 5351 5347 5342 5337 5330 5322 5316 5310 5304 5301 5300 5300 5299 5298 5297 5297 5298 5297 5297 5298 5298 5299 5300
5434 5429 5424 5419 5414 5408 5403 5397 5392 5387 5381 5376 5371 5366 5360 5354 5349 5344 5339 5334 5329 5324 5318 5311 5305 5299 5294 5289 5286 5286 5286 5286 5285 5284 5284 5285 5285 5286 5286 5286 5287 5288
5423 5418 5413 5408 5403 5397 5392 5386 5381 5375 5369 5363 5357 5352 5346 5339 5333 5327 5321 5316 5310 5305 5299 5293 5288 5284 5280 5276 5273 5272 5273 5273 5273 5272 5272 5273 5273 5274 5275 5274 5275 5277
5412 5407 5402 5397 5392 5386 5381 5375 5369 5363 5357 5350 5344 5337 5331 5324 5317 5310 5303 5297 5292 5286 5281 5276 5272 5270 5266 5264 5261 5260 5260 5261 5261 5260 5260 5261 5262 5263 5263 5263 5264 5266
5401 5396 5391 5385 5380 5374 5369 5363 5357 5350 5343 5337 5329 5323 5317 5310 5303 5295 5287 5280 5274 5269 5264 5261 5258 5256 5253 5251 5249 5247 5248 5249 5249 5248 5249 5250 5250 5251 5252 5252 5253 5255
5390 5384 5378 5373 5367 5361 5355 5349 5343 5336 5330 5323 5314 5307 5301 5295 5288 5281 5272 5264 5258 5253 5249 5246 5244 5242 5240 5239 5238 5235 5236 5237 5237 5237 5238 5238 5239 5241 5241 5242 5243 5244
5378 5372 5366 5360 5354 5348 5341 5335 5329 5323 5316 5309 5301 5292 5285 5278 5270 5264 5257 5250 5244 5239 5236 5232 5230 5229 5228 5227 5226 5224 5224 5226 5226 5226 5227 5228 5229 5230 5231 5232 5233 5234
5366 5360 5354 5347 5340 5334 5327 5320 5314 5308 5301 5294 5287 5278 5270 5262 5254 5246 5240 5235 5230 5226 5223 5220 5217 5216 5216 5215 5214 5213 5213 5214 5215 5215 5216 5217 5218 5220 5221 5222 5223 5224
5354 5348 5341 5334 5327 5319 5312 5305 5299 5292 5286 5279 5272 5263 5255 5247 5239 5231 5224 5219 5216 5213 5210 5207 5205 5204 5204 5203 5203 5202 5201 5202 5204 5205 5206 5207 5208 5210 5211 5213 5214 5215
5342 5336 5329 5321 5313 5305 5298 5291 5284 5277 5270 5264 5256 5248 5240 5232 5224 5217 5210 5204 5201 5199 5196 5194 5193 5192 5192 5192 5191 5191 5190 5191 5193 5194 5195 5197 5199 5201 5202 5204 5205 5206
5329 5323 5316 5308 5299 5292 5284 5276 5269 5262 5254 5247 5240 5232 5225 5217 5210 5203 5197 5191 5187 5184 5183 5181 5181 5181 5181 5180 5180 5179 5179 5179 5182 5185 5186 5187 5189 5191 5193 5195 5196 5197
5315 5309 5302 5293 5284 5276 5269 5261 5253 5246 5238 5230 5223 5216 5208 5202 5195 5188 5183 5178 5173 5171 5170 5168 5168 5169 5169 5169 5169 5169 5168 5169 5171 5175 5177 5178 5180 5182 5184 5186 5188 5189
5302 5295 5287 5279 5270 5261 5253 5245 5236 5229 5220 5212 5205 5198 5191 5185 5179 5173 5168 5164 5160 5159 5158 5157 5157 5158 5158 5159 5159 5158 5159 5159 5161 5165 5168 5170 5172 5174 5176 5178 5180 5181
5288 5281 5273 5264 5255 5246 5238 5229 5221 5213 5204 5195 5187 5181 5175 5169 5163 5158 5153 5150 5147 5146 5145 5145 5146 5147 5147 5148 5148 5148 5150 5150 5151 5156 5160 5162 5164 5166 5168 5170 5172 5173
5272 5265 5258 5249 5240 5231 5222 5214 5205 5197 5188 5179 5172 5166 5159 5153 5149 5144 5140 5137 5135 5133 5134 5135 5136 5137 5137 5137 5138 5140 5141 5141 5143 5147 5151 5154 5156 5158 5160 5163 5164 5166
5256 5249 5241 5233 5224 5214 5205 5197 5189 5180 5172 5163 5157 5151 5145 5138 5134 5131 5127 5125 5124 5122 5123 5125 5127 5127 5127 5128 5129 5131 5132 5133 5136 5140 5143 5147 5149 5151 5153 5155 5157 5159
5241 5233 5225 5217 5208 5198 5189 5181 5173 5164 5155 5147 5141 5136 5131 5126 5121 5119 5116 5114 5113 5112 5113 5115 5118 5118 5118 5119 5121 5123 5124 5126 5129 5132 5136 5139 5141 5143 5145 5147 5149 5152
5229 5219 5209 5201 5192 5183 5173 5164 5157 5149 5141 5133 5126 5121 5118 5113 5109 5107 5105 5104 5103 5103 5104 5106 5109 5109 5110 5111 5113 5115 5117 5119 5122 5125 5129 5132 5134 5136 5138 5139 5141 5145
5216 5206 5196 5186 5177 5168 5159 5149 5141 5134 5127 5120 5113 5108 5105 5102 5098 5096 5096 5095 5094 5095 5096 5098 5100 5102 5102 5104 5107 5108 5110 5113 5115 5118 5122 5124 5126 5128 5130 5132 5134 5137
5201 5191 5181 5171 5161 5153 5146 5136 5127 5120 5115 5109 5103 5098 5094 5091 5088 5086 5086 5086 5086 5087 5089 5090 5093 5094 5096 5098 5100 5103 5104 5106 5109 5112 5115 5117 5119 5121 5123 5124 5127 5131